Location: Fatehalanka
(16.3139°N, 80.8379°E)
Time: 05:04:07
(UTC+00:00)

Cosmos 468 - Pass Details

Date: 14 May 2026
Orbit: 758 x 781 km, 74.0° (Epoch: 6 June)

Event Time Altitude Azimuth Distance (km) Brightness Sun altitude
Rises 23:34:03 0° 196° (SSW) 3,201 7.3 -8.1°
Reaches altitude 10° 23:36:25 10° 197° (SSW) 2,277 6.6 -7.6°
Maximum altitude 23:41:34 78° 283° (WNW) 776 4.5 -6.4°
Drops below altitude 10° 23:46:45 10° 10° (N) 2,286 7.4 -5.3°
Sets 23:49:08 0° 12° (NNE) 3,215 8.2 -4.7°
